Regional Weather Roundup
Issued by NWS Green Bay, WI

Home | Current Version | Previous Version | Text Only | Print | Product List | Glossary On
Versions: 1 2 3 4 5 6 7 8 9 10 11 12 13 14 15 16 17 18 19 20 21 22 23 24 25 26 27 28 29 30 31 32 33 34 35 36 37 38 39 40 41 42 43 44 45 46 47 48 49 50
000
ASUS43 KGRB 201000
RWRGRB

NORTH-CENTRAL AND NORTHEAST WISCONSIN REGIONAL WEATHER ROUNDUP
NATIONAL WEATHER SERVICE GREEN BAY WI
400 AM CST FRI JAN 20 2017

WIZ005-009-010>012-018-019-201100-
NORTH CENTRAL WISCONSIN

CITY           SKY/WX    TMP DP  RH WIND       PRES   REMARKS
IRONWOOD       MOCLDY    30  27  88 CALM      29.69F
MANITOWISH WTR NOT AVBL
ARBOR VITAE    NOT AVBL
EAGLE RIVER    NOT AVBL
LAND O LAKES   NOT AVBL
RHINELANDER    MOCLDY    26  26 100 E5        29.69F FOG
PHILLIPS       CLOUDY    31  31  98 SE3       29.68S
ANTIGO         NOT AVBL
TOMAHAWK       NOT AVBL
MERRILL        MIX PCPN  32  32 100 CALM        N/A
$$

WIZ013-073-201100-
NORTHEAST WISCONSIN

CITY           SKY/WX    TMP DP  RH WIND       PRES   REMARKS
IRON MOUNTAIN  FOG       30  28  92 CALM      29.71F VSB 1/2
MARINETTE      NOT AVBL
$$

WIZ017-030-035>037-045-201100-
CENTRAL WISCONSIN

CITY           SKY/WX    TMP DP  RH WIND       PRES   REMARKS
MEDFORD        NOT AVBL
WAUSAU         FRZ RAIN  32  31  96 E7        29.68F FOG
MOSINEE        NOT AVBL
MARSHFIELD     CLOUDY    33  31  92 E9        29.66F FOG
WISC RAPIDS    CLOUDY    34  33  96 E7        29.69  FOG
STEVENS POINT  NOT AVBL
WAUPACA        NOT AVBL
SHAWANO        NOT AVBL
CLINTONVILLE   MIX PCPN  32  32 100 NE5       29.72F VSB 3/4
WAUTOMA        LGT RAIN  33  32  96 CALM      29.70S FOG
$$

WIZ038-039-048-051-201100-
FOX VALLEY

CITY           SKY/WX    TMP DP  RH WIND       PRES   REMARKS
NWS GREEN BAY  FOG       34  34 100 NE6       29.73F VSB 1/4
APPLETON       NOT AVBL
OSHKOSH        LGT RAIN  33  33 100 NE5       29.70F FOG
FOND DU LAC    RAIN      35  32  88 NE7       29.69F FOG
$$

WIZ022-050-052-201100-
EAST CENTRAL WISCONSIN

CITY           SKY/WX    TMP DP  RH WIND       PRES   REMARKS
EPHRAIM        NOT AVBL
WASHINGTON ISL NOT AVBL
STURGEON BAY   FOG       33  32  96 CALM      29.74F VSB 1/4
MANITOWOC      LGT RAIN  34  34 100 N3        29.72F VSB 1/2
SHEBOYGAN      LGT RAIN  35  34  96 NE7       29.70F FOG
$$

LMZ563-521-522-541>543-201100-
LAKESHORE

STATION/POSITION TIME  TEMP    WIND        PRES    VSBY  WAVE
                       AIR SEA DIR/SP/G                  HT/PER
                 (UTC) (F)     (DEG/KT/KT) (MB)    (MI)  (FT/S)
SHEBOYGAN LKSHOR 0900   35      10/  9/  9 1006.9F
KEWAUNEE LKSHORE 0930   35      40/  1/  4 1006.7F
NORTHPORT PIER   0940   33        CALM     1007.5F
SISTER BAY LKSHO 0920   33        CALM       N/A
$$



USA.gov is the U.S. government's official web portal to all federal, state and local government web resources and services.